^^

Live Weather Display



Station Historical Data
Daily Summary for June 19, 2017 Units:  Metric    English   Both
« Previous Day
Next Day »
Daily Weekly Monthly Yearly Custom
  High: Low: Average:
Temperature: 29.8 °C 20.9 °C 24.6 °C
Dew Point: 23.3 °C 19.1 °C 21.3 °C
Humidity: 95 % 66 % 82 %
Wind Speed: 16.6 km/h 0 km/h 1.6 km/h
Wind Gust: 32.3 km/h - -
Wind:- - SE
Pressure: 1012.4 hPa 1008 hPa -
Precipitation: 8.64 mm    
Historical Graphs
 
 
Tabular Data for June 19, 2017
Time Temperature Dew Point Pressure Wind Wind Speed Wind Gust Humidity Rainfall Rate (Hourly)
00:04 26.9 °C 22.1 °C 1009.7 hPa Calm   5 km/h 75 % 0 mm
00:09 26.9 °C 22.1 °C 1009.7 hPa Calm   4.7 km/h 75 % 0 mm
00:14 26.9 °C 22.1 °C 1009.7 hPa Calm   6.1 km/h 75 % 0 mm
00:19 26.9 °C 21.9 °C 1009.7 hPa SSE 1.4 km/h 7.9 km/h 74 % 0 mm
00:24 26.9 °C 21.9 °C 1009.4 hPa Calm   7.9 km/h 74 % 0 mm
00:29 26.9 °C 21.9 °C 1009.4 hPa Calm   7.6 km/h 74 % 0 mm
00:34 26.8 °C 21.8 °C 1009.7 hPa Calm   6.9 km/h 74 % 0 mm
00:39 26.8 °C 21.8 °C 1009.7 hPa Calm   16.6 km/h 74 % 0 mm
00:44 26.8 °C 21.8 °C 1009.4 hPa Calm   16.6 km/h 74 % 0 mm
00:49 26.8 °C 21.8 °C 1009.4 hPa Calm   13.7 km/h 74 % 0 mm
00:54 26.7 °C 21.7 °C 1009.4 hPa Calm   12.2 km/h 74 % 0 mm
00:59 26.7 °C 21.7 °C 1009.4 hPa Calm   12.2 km/h 74 % 0 mm
01:04 26.6 °C 21.6 °C 1009.4 hPa Calm   11.9 km/h 74 % 0 mm
01:09 26.6 °C 21.6 °C 1009 hPa Calm   16.9 km/h 74 % 0 mm
01:14 26.6 °C 21.6 °C 1009.4 hPa ESE 6.1 km/h 16.9 km/h 74 % 0 mm
01:19 26.5 °C 21.5 °C 1009.4 hPa Calm   12.6 km/h 74 % 0 mm
01:24 26.4 °C 21.4 °C 1009.4 hPa SE 4.7 km/h 12.6 km/h 74 % 0 mm
01:29 26.4 °C 21.4 °C 1009.4 hPa East 1.4 km/h 9.7 km/h 74 % 0 mm
01:34 26.4 °C 21.4 °C 1009.4 hPa Calm   9.3 km/h 74 % 0 mm
01:39 26.3 °C 21.3 °C 1009.4 hPa Calm   8.7 km/h 74 % 0 mm
01:44 26.3 °C 21.3 °C 1009.4 hPa Calm   16.6 km/h 74 % 0 mm
01:49 26.2 °C 21.2 °C 1009.4 hPa ESE 12.2 km/h 16.6 km/h 74 % 0 mm
01:54 26.1 °C 21.1 °C 1009.4 hPa Calm   12.2 km/h 74 % 0 mm
01:59 26.1 °C 21.3 °C 1009.4 hPa Calm   6.9 km/h 75 % 0 mm
02:04 25.9 °C 21.1 °C 1009.4 hPa Calm   9.3 km/h 75 % 0 mm
02:09 25.9 °C 21.1 °C 1009.4 hPa Calm   15.4 km/h 75 % 0 mm
02:10 25.9 °C 21.1 °C 1009.4 hPa Calm   15.4 km/h 75 % 0 mm
02:15 25.9 °C 21.1 °C 1009 hPa Calm   15.8 km/h 75 % 0 mm
02:20 25.9 °C 21.1 °C 1009 hPa ESE 9.7 km/h 15.8 km/h 75 % 0 mm
02:25 25.9 °C 21.3 °C 1009 hPa North 5.8 km/h 9.7 km/h 76 % 0 mm
02:30 25.8 °C 21.2 °C 1009.4 hPa SE 3.2 km/h 8.7 km/h 76 % 0 mm
02:35 25.8 °C 21.2 °C 1009.4 hPa Calm   14.8 km/h 76 % 0 mm
02:40 25.6 °C 21.3 °C 1009.7 hPa East 12.2 km/h 14.8 km/h 77 % 0 mm
02:45 25.6 °C 21.3 °C 1009.7 hPa Calm   14.3 km/h 77 % 0 mm
02:50 25.6 °C 21.3 °C 1009.4 hPa Calm   14.3 km/h 77 % 0 mm
02:55 25.6 °C 21.4 °C 1009.4 hPa Calm   10.1 km/h 78 % 0 mm
03:00 25.5 °C 21.4 °C 1009.4 hPa ESE 4.7 km/h 8.2 km/h 78 % 0 mm
03:05 25.5 °C 21.4 °C 1009.4 hPa Calm   8.2 km/h 78 % 0 mm
03:10 25.4 °C 21.3 °C 1009.4 hPa SE 4 km/h 7.9 km/h 78 % 0 mm
03:15 25.4 °C 21.3 °C 1009.4 hPa Calm   7.9 km/h 78 % 0 mm
03:20 25.4 °C 21.5 °C 1009.4 hPa Calm   14.3 km/h 79 % 0 mm
03:25 25.3 °C 21.4 °C 1009.4 hPa Calm   14.3 km/h 79 % 0 mm
03:30 25.3 °C 21.4 °C 1009.4 hPa SE 12.2 km/h 12.2 km/h 79 % 0 mm
03:35 25.3 °C 21.6 °C 1009 hPa Calm   12.2 km/h 80 % 0 mm
03:40 25.3 °C 21.6 °C 1009 hPa Calm   6.1 km/h 80 % 0 mm
03:45 25.2 °C 21.5 °C 1009.4 hPa Calm   5 km/h 80 % 0 mm
03:50 25.1 °C 21.4 °C 1009 hPa Calm   5 km/h 80 % 0 mm
03:55 25.1 °C 21.6 °C 1009.4 hPa ESE 6.4 km/h 8.2 km/h 81 % 0 mm
03:57 25.1 °C 21.6 °C 1009.4 hPa Calm   8.2 km/h 81 % 0 mm
04:02 25.1 °C 21.6 °C 1009 hPa ESE 7.9 km/h 8.2 km/h 81 % 0 mm
04:07 25 °C 21.5 °C 1009 hPa Calm   7.9 km/h 81 % 0 mm
04:12 25 °C 21.5 °C 1009 hPa SE 7.2 km/h 7.2 km/h 81 % 0 mm
04:17 25 °C 21.5 °C 1009 hPa Calm   7.2 km/h 81 % 0 mm
04:22 24.9 °C 21.6 °C 1009.4 hPa East 7.2 km/h 7.2 km/h 82 % 0 mm
04:27 24.9 °C 21.6 °C 1009.4 hPa Calm   7.2 km/h 82 % 0 mm
04:32 24.9 °C 21.6 °C 1009.4 hPa ESE 3.2 km/h 8.2 km/h 82 % 0 mm
04:37 24.8 °C 21.5 °C 1009.4 hPa Calm   8.2 km/h 82 % 0 mm
04:42 24.8 °C 21.5 °C 1009 hPa Calm   13 km/h 82 % 0 mm
04:47 24.8 °C 21.5 °C 1009.4 hPa Calm   13 km/h 82 % 0 mm
04:52 24.8 °C 21.5 °C 1009.4 hPa ESE 13.4 km/h 13.4 km/h 82 % 0 mm
04:57 24.8 °C 21.5 °C 1009.4 hPa Calm   16.6 km/h 82 % 0 mm
05:02 24.8 °C 21.5 °C 1009.4 hPa Calm   16.6 km/h 82 % 0 mm
05:07 24.7 °C 21.6 °C 1009.7 hPa ESE 6.1 km/h 8.7 km/h 83 % 0 mm
05:12 24.7 °C 21.6 °C 1009.4 hPa Calm   8.7 km/h 83 % 0 mm
05:17 24.6 °C 21.5 °C 1009.4 hPa Calm   10.1 km/h 83 % 0 mm
05:22 24.6 °C 21.5 °C 1009.7 hPa Calm   10.1 km/h 83 % 0 mm
05:27 24.6 °C 21.5 °C 1009.7 hPa Calm   6.1 km/h 83 % 0 mm
05:32 24.6 °C 21.5 °C 1009.7 hPa ESE 15.1 km/h 15.1 km/h 83 % 0 mm
05:37 24.6 °C 21.5 °C 1010 hPa Calm   15.1 km/h 83 % 0 mm
05:42 24.5 °C 21.6 °C 1009.7 hPa Calm   15.1 km/h 84 % 0 mm
05:52 24.5 °C 21.6 °C 1009.7 hPa Calm   7.2 km/h 84 % 0 mm
05:57 24.4 °C 21.6 °C 1009.7 hPa WSW 2.9 km/h 12.6 km/h 84 % 0 mm
06:02 24.4 °C 21.3 °C 1009.7 hPa Calm   12.6 km/h 83 % 0 mm
06:07 24.4 °C 21.3 °C 1009.7 hPa Calm   7.2 km/h 83 % 0 mm
06:12 24.4 °C 21.3 °C 1009.7 hPa Calm   7.2 km/h 83 % 0 mm
06:17 24.4 °C 21.3 °C 1009.7 hPa Calm   9.7 km/h 83 % 0 mm
06:22 24.4 °C 21.3 °C 1009.7 hPa South 2.6 km/h 10.5 km/h 83 % 0 mm
06:27 24.4 °C 21.3 °C 1009.7 hPa East 5.5 km/h 10.5 km/h 83 % 0 mm
06:32 24.4 °C 21.3 °C 1010 hPa SE 3.5 km/h 9.7 km/h 83 % 0 mm
06:37 24.4 °C 21.3 °C 1010 hPa Calm   3.5 km/h 83 % 0 mm
06:42 24.4 °C 21.3 °C 1010 hPa Calm   10.8 km/h 83 % 0 mm
06:47 24.4 °C 21.2 °C 1010 hPa ESE 7.2 km/h 10.8 km/h 82 % 0 mm
06:52 24.5 °C 21.2 °C 1010 hPa SW 5 km/h 8.2 km/h 82 % 0 mm
06:57 24.6 °C 21.3 °C 1010 hPa Calm   9 km/h 82 % 0 mm
07:02 24.7 °C 21.2 °C 1010 hPa Calm   10.1 km/h 81 % 0 mm
07:07 24.8 °C 21.3 °C 1010 hPa Calm   10.1 km/h 81 % 0 mm
07:12 24.8 °C 21.1 °C 1010 hPa Calm   7.2 km/h 80 % 0 mm
07:17 24.8 °C 21.1 °C 1010 hPa Calm   13.4 km/h 80 % 0 mm
07:22 24.8 °C 21.1 °C 1010 hPa ESE 7.6 km/h 13.4 km/h 80 % 0 mm
07:27 24.8 °C 21.1 °C 1010 hPa ESE 2.6 km/h 7.6 km/h 80 % 0 mm
07:32 24.8 °C 21.1 °C 1010.4 hPa Calm   7.6 km/h 80 % 0 mm
07:37 24.7 °C 21.1 °C 1010.4 hPa ESE 5.5 km/h 8.7 km/h 80 % 0 mm
07:42 24.7 °C 21.1 °C 1010.4 hPa WSW 2.6 km/h 11.1 km/h 80 % 0 mm
07:47 24.7 °C 21.1 °C 1010.4 hPa ESE 4 km/h 11.1 km/h 80 % 0 mm
07:52 24.6 °C 20.9 °C 1010.4 hPa SE 4 km/h 4.7 km/h 80 % 0 mm
07:57 24.5 °C 20.8 °C 1010.4 hPa Calm   12.6 km/h 80 % 0 mm
08:02 24.5 °C 20.8 °C 1010.4 hPa SSE 6.4 km/h 12.6 km/h 80 % 0 mm
08:07 24.4 °C 20.8 °C 1010.4 hPa SE 9 km/h 10.8 km/h 80 % 0 mm
08:12 24.4 °C 20.8 °C 1010.4 hPa Calm   17.2 km/h 80 % 0 mm
08:17 24.4 °C 20.8 °C 1010.4 hPa East 7.6 km/h 17.2 km/h 80 % 0 mm
08:22 24.4 °C 20.8 °C 1010.4 hPa ESE 5.8 km/h 11.1 km/h 80 % 0 mm
08:27 24.4 °C 20.9 °C 1010.4 hPa Calm   14 km/h 81 % 0 mm
08:32 24.5 °C 20.8 °C 1010.4 hPa SE 4.7 km/h 14 km/h 80 % 0 mm
08:37 24.5 °C 20.6 °C 1010.4 hPa South 2.9 km/h 10.8 km/h 79 % 0 mm
08:42 24.4 °C 20.6 °C 1010.4 hPa Calm   12.2 km/h 79 % 0 mm
08:47 24.4 °C 20.8 °C 1010.4 hPa Calm   15.8 km/h 80 % 0 mm
08:52 24.5 °C 20.8 °C 1010.4 hPa SE 2.1 km/h 15.8 km/h 80 % 0 mm
08:57 24.6 °C 20.7 °C 1010.4 hPa SSE 1.4 km/h 14.3 km/h 79 % 0 mm
09:02 24.6 °C 20.7 °C 1010.4 hPa ENE 6.9 km/h 24.5 km/h 79 % 0 mm
09:07 24.6 °C 20.7 °C 1010 hPa Calm   24.5 km/h 80 % 0 mm
09:12 24.8 °C 21.1 °C 1010.4 hPa Calm   13.4 km/h 80 % 0 mm
09:17 24.9 °C 21.2 °C 1010 hPa Calm   13 km/h 80 % 0 mm
09:22 25.1 °C 21.2 °C 1010.4 hPa SE 4 km/h 13.7 km/h 79 % 0 mm
09:27 25.1 °C 21.2 °C 1010 hPa Calm   13.7 km/h 79 % 0 mm
09:32 25.3 °C 21.4 °C 1010 hPa Calm   9 km/h 79 % 0 mm
09:37 25.5 °C 21.4 °C 1010 hPa SW 5 km/h 12.6 km/h 78 % 0 mm
09:42 25.6 °C 21.4 °C 1010 hPa ESE 3.2 km/h 12.6 km/h 78 % 0 mm
09:47 25.8 °C 21.7 °C 1010 hPa Calm   12.6 km/h 78 % 0 mm
09:52 25.9 °C 21.8 °C 1010 hPa WSW 3.5 km/h 15.1 km/h 78 % 0 mm
09:57 25.9 °C 21.8 °C 1010 hPa ESE 7.9 km/h 15.1 km/h 78 % 0 mm
10:02 26.1 °C 21.5 °C 1010 hPa SSE 5.5 km/h 26.2 km/h 76 % 0 mm
10:07 26.2 °C 21.8 °C 1010 hPa East 4 km/h 26.2 km/h 77 % 0 mm
10:12 26.4 °C 22.1 °C 1010 hPa Calm   15.4 km/h 77 % 0 mm
10:17 26.6 °C 22 °C 1010.4 hPa Calm   11.1 km/h 76 % 0 mm
10:22 26.7 °C 21.9 °C 1010.4 hPa Calm   15.1 km/h 75 % 0 mm
10:27 26.6 °C 22 °C 1010.4 hPa ESE 4.7 km/h 15.1 km/h 76 % 0 mm
10:32 26.8 °C 22.2 °C 1010.4 hPa Calm   14.8 km/h 76 % 0 mm
10:37 26.9 °C 22.3 °C 1010.4 hPa Calm   14.8 km/h 76 % 0 mm
10:42 26.9 °C 22.3 °C 1010 hPa Calm   13.7 km/h 76 % 0 mm
10:47 26.9 °C 22.3 °C 1010.4 hPa Calm   13.7 km/h 76 % 0 mm
10:52 26.6 °C 22 °C 1010.4 hPa Calm   10.1 km/h 76 % 0 mm
10:57 26.4 °C 22.1 °C 1010 hPa SSE 5.5 km/h 11.9 km/h 77 % 0 mm
11:02 26.4 °C 22.1 °C 1010 hPa SSE 3.5 km/h 13.4 km/h 77 % 0 mm
11:07 26.4 °C 22.3 °C 1010 hPa Calm   13.4 km/h 78 % 0 mm
11:12 26.4 °C 22.1 °C 1010.4 hPa SW 5.8 km/h 12.6 km/h 77 % 0 mm
11:17 26.4 °C 21.8 °C 1010.4 hPa Calm   21.2 km/h 76 % 0 mm
11:22 26.3 °C 21.7 °C 1010.4 hPa East 2.9 km/h 21.2 km/h 76 % 0 mm
11:27 26.4 °C 22.1 °C 1010.4 hPa Calm   15.4 km/h 77 % 0 mm
11:30 26.5 °C 22.2 °C 1010.4 hPa Calm   10.1 km/h 77 % 0 mm
11:35 26.8 °C 22.2 °C 1010.4 hPa Calm   18 km/h 76 % 0 mm
11:40 26.9 °C 22.1 °C 1010 hPa Calm   18 km/h 75 % 0 mm
11:45 26.9 °C 22.1 °C 1010.4 hPa SE 1.1 km/h 17.2 km/h 75 % 0 mm
11:50 26.8 °C 22.2 °C 1010.4 hPa ESE 9 km/h 10.8 km/h 76 % 0 mm
11:55 26.8 °C 22.2 °C 1010.4 hPa ENE 1.8 km/h 21.2 km/h 76 % 0 mm
12:00 26.9 °C 22.3 °C 1010.4 hPa SE 5.8 km/h 21.2 km/h 75 % 0 mm
12:05 27.1 °C 22.3 °C 1010 hPa SE 3.5 km/h 16.9 km/h 75 % 0 mm
12:10 27.3 °C 22.5 °C 1010 hPa East 3.5 km/h 16.9 km/h 75 % 0 mm
12:15 27.3 °C 22.3 °C 1010 hPa SSE 9 km/h 9.7 km/h 74 % 0 mm
12:20 27.3 °C 22.3 °C 1010 hPa ESE 8.2 km/h 9.7 km/h 74 % 0 mm
12:25 27.5 °C 22 °C 1010 hPa Calm   16.9 km/h 72 % 0 mm
12:30 27.6 °C 22.1 °C 1010 hPa SW 5.5 km/h 16.9 km/h 72 % 0 mm
12:35 27.9 °C 22.3 °C 1010 hPa SE 16.6 km/h 16.6 km/h 72 % 0 mm
12:40 27.8 °C 22.1 °C 1009.7 hPa Calm   17.7 km/h 71 % 0 mm
12:45 27.9 °C 22.1 °C 1009.7 hPa Calm   17.7 km/h 71 % 0 mm
12:50 27.8 °C 22.1 °C 1009.7 hPa SE 11.1 km/h 19.2 km/h 71 % 0 mm
12:55 27.9 °C 22.3 °C 1009.7 hPa Calm   19.2 km/h 72 % 0 mm
13:00 28.2 °C 22.2 °C 1009.4 hPa East 5.8 km/h 19.8 km/h 70 % 0 mm
13:05 28.3 °C 22.3 °C 1009.7 hPa SSE 2.6 km/h 19.8 km/h 70 % 0 mm
13:10 28.4 °C 22.6 °C 1009.4 hPa Calm   11.9 km/h 71 % 0 mm
13:12 28.5 °C 22.7 °C 1009 hPa Calm   7.9 km/h 71 % 0 mm
13:17 28.5 °C 22 °C 1009 hPa Calm   9.7 km/h 68 % 0 mm
13:22 28.6 °C 22.3 °C 1009 hPa ESE 5 km/h 9.7 km/h 69 % 0 mm
13:27 28.7 °C 22.4 °C 1009 hPa South 5 km/h 21.2 km/h 69 % 0 mm
13:32 28.7 °C 22.4 °C 1008.7 hPa SSE 13.4 km/h 21.2 km/h 69 % 0 mm
13:37 28.8 °C 22.3 °C 1008.7 hPa ESE 10.5 km/h 32.3 km/h 68 % 0 mm
13:42 29 °C 22.8 °C 1008.7 hPa Calm   32.3 km/h 69 % 0 mm
13:47 29.1 °C 22.6 °C 1008.4 hPa SE 5.5 km/h 23.3 km/h 68 % 0 mm
13:52 29.1 °C 22.6 °C 1008.4 hPa East 4.7 km/h 23.3 km/h 68 % 0 mm
13:57 29.2 °C 22.7 °C 1008.4 hPa SE 2.9 km/h 15.1 km/h 68 % 0 mm
14:02 29.6 °C 23.1 °C 1008.4 hPa SE 4 km/h 15.8 km/h 68 % 0 mm
14:07 29.5 °C 22.7 °C 1008.4 hPa East 3.2 km/h 20.6 km/h 67 % 0 mm
14:12 29.5 °C 23 °C 1008.4 hPa Calm   20.6 km/h 68 % 0 mm
14:17 29.8 °C 23 °C 1008.4 hPa SSW 8.7 km/h 14.3 km/h 67 % 0 mm
14:22 29.7 °C 22.9 °C 1008.4 hPa Calm   11.1 km/h 67 % 0 mm
14:27 29.8 °C 23 °C 1008 hPa SE 7.6 km/h 13 km/h 67 % 0 mm
14:32 29.8 °C 23.3 °C 1008 hPa Calm   13 km/h 68 % 0 mm
14:37 29.8 °C 23 °C 1008 hPa East 8.7 km/h 15.8 km/h 66 % 0 mm
14:42 29.3 °C 22.3 °C 1008.4 hPa Calm   19.8 km/h 67 % 0 mm
14:47 29.2 °C 22.4 °C 1008.4 hPa Calm   19.8 km/h 67 % 0 mm
14:52 29 °C 22.5 °C 1008.7 hPa ESE 3.5 km/h 15.1 km/h 68 % 0 mm
14:57 28.7 °C 22.2 °C 1008.7 hPa Calm   18.7 km/h 68 % 0 mm
15:02 28.7 °C 22.4 °C 1008.4 hPa SSE 4.3 km/h 18.7 km/h 69 % 0 mm
15:07 28.6 °C 22.1 °C 1008.7 hPa Calm   6.4 km/h 68 % 0 mm
15:12 28.5 °C 22.3 °C 1008.7 hPa Calm   9.3 km/h 69 % 0 mm
15:17 28.4 °C 22.2 °C 1008.7 hPa SSE 3.2 km/h 15.4 km/h 69 % 0 mm
15:22 28.3 °C 22.3 °C 1008.7 hPa Calm   15.4 km/h 70 % 0 mm
15:27 28.2 °C 22.3 °C 1010 hPa North 4.7 km/h 22.7 km/h 70 % 0 mm
15:32 26.2 °C 20.7 °C 1010 hPa Calm   22.7 km/h 72 % 3.56 mm
15:33 25.4 °C 20.2 °C 1009.7 hPa Calm   22.7 km/h 73 % 4.06 mm
15:38 23.9 °C 19.4 °C 1009 hPa Calm   15.1 km/h 76 % 4.57 mm
15:43 22.8 °C 19.2 °C 1009.4 hPa Calm   3.5 km/h 80 % 4.57 mm
15:48 22.1 °C 19.2 °C 1009.4 hPa Calm   3.5 km/h 83 % 4.57 mm
15:53 21.8 °C 19.2 °C 1009.4 hPa Calm     85 % 4.57 mm
15:58 21.5 °C 19.1 °C 1009.4 hPa Calm   6.9 km/h 86 % 4.57 mm
16:01 21.4 °C 19.1 °C 1009.4 hPa Calm   6.9 km/h 87 % 4.57 mm
16:06 21.3 °C 19.2 °C 1009.4 hPa NNW 3.2 km/h 3.2 km/h 88 % 4.57 mm
16:11 21.2 °C 19.1 °C 1009.4 hPa Calm   3.2 km/h 88 % 4.57 mm
16:16 21.2 °C 19.3 °C 1009.4 hPa Calm     89 % 4.57 mm
16:21 21.3 °C 19.6 °C 1009.4 hPa Calm     90 % 4.57 mm
16:26 21.3 °C 19.6 °C 1009 hPa Calm     90 % 4.57 mm
16:31 21.3 °C 19.6 °C 1009.4 hPa Calm   4 km/h 90 % 2.03 mm
16:36 21.3 °C 19.8 °C 1009.4 hPa Calm   4 km/h 91 % 0 mm
16:41 21.4 °C 19.8 °C 1009.7 hPa Calm     91 % 0.51 mm
16:46 21.4 °C 20.1 °C 1009.7 hPa Calm     92 % 0.51 mm
16:51 21.4 °C 20.1 °C 1009.7 hPa Calm   2.9 km/h 92 % 2.03 mm
16:56 21.5 °C 20.3 °C 1009.4 hPa Calm   2.9 km/h 93 % 2.03 mm
16:57 21.5 °C 20.3 °C 1009.4 hPa Calm   2.9 km/h 93 % 2.54 mm
17:02 21.6 °C 20.4 °C 1009.4 hPa Calm   9.7 km/h 93 % 2.54 mm
17:07 21.6 °C 20.4 °C 1009 hPa Calm   9.7 km/h 93 % 2.54 mm
17:12 21.6 °C 20.4 °C 1009.4 hPa Calm   5.5 km/h 93 % 2.54 mm
17:17 21.7 °C 20.5 °C 1009.4 hPa Calm   4.7 km/h 93 % 2.54 mm
17:22 21.8 °C 20.6 °C 1009.7 hPa Calm   3.5 km/h 93 % 2.54 mm
17:27 21.9 °C 20.7 °C 1009.4 hPa Calm   3.5 km/h 93 % 3.56 mm
17:32 21.8 °C 20.6 °C 1009.4 hPa Calm   2.6 km/h 93 % 3.56 mm
17:37 21.8 °C 20.6 °C 1009.4 hPa Calm   2.6 km/h 93 % 3.56 mm
17:42 21.8 °C 20.6 °C 1009 hPa Calm     93 % 3.56 mm
17:47 21.8 °C 20.6 °C 1009 hPa Calm     93 % 3.05 mm
17:52 21.8 °C 20.8 °C 1009.4 hPa Calm     94 % 2.03 mm
17:57 21.9 °C 20.9 °C 1009.4 hPa Calm     94 % 1.52 mm
18:02 21.9 °C 20.9 °C 1009.7 hPa Calm     94 % 1.52 mm
18:07 22.1 °C 21.1 °C 1009.7 hPa Calm     94 % 1.52 mm
18:12 22.1 °C 21.1 °C 1009.7 hPa Calm     94 % 1.52 mm
18:17 22.1 °C 21.1 °C 1009.7 hPa Calm     94 % 1.52 mm
18:22 22.1 °C 21.1 °C 1009.7 hPa Calm     94 % 1.02 mm
18:23 22.1 °C 21.1 °C 1009.7 hPa Calm     94 % 1.02 mm
18:28 22.1 °C 21.1 °C 1009.4 hPa Calm     94 % 0.51 mm
18:33 22.1 °C 21.1 °C 1009.7 hPa Calm     94 % 0.51 mm
18:38 22.1 °C 21.1 °C 1009.4 hPa Calm     94 % 0 mm
18:43 22.1 °C 21.1 °C 1009.4 hPa Calm     94 % 0 mm
18:48 22.1 °C 21.1 °C 1009.4 hPa Calm     94 % 0 mm
18:53 22.1 °C 21.1 °C 1009.4 hPa Calm     94 % 0 mm
18:58 22.1 °C 21.1 °C 1009.7 hPa Calm     94 % 0 mm
19:03 22.1 °C 21.1 °C 1009.7 hPa Calm     94 % 0 mm
19:08 22.1 °C 21.3 °C 1009.4 hPa Calm     95 % 0 mm
19:13 22.2 °C 21.3 °C 1009.4 hPa Calm     95 % 0 mm
19:18 22.2 °C 21.3 °C 1009.7 hPa Calm     95 % 0 mm
19:23 22.2 °C 21.3 °C 1009.4 hPa Calm     95 % 0 mm
19:28 22.2 °C 21.3 °C 1009.4 hPa Calm     95 % 0 mm
19:33 22.2 °C 21.3 °C 1009.4 hPa Calm     95 % 0 mm
19:38 22.2 °C 21.4 °C 1009.7 hPa Calm     95 % 0 mm
19:43 22.3 °C 21.4 °C 1010 hPa Calm     95 % 0 mm
19:48 22.3 °C 21.4 °C 1010 hPa Calm     95 % 0 mm
19:53 22.3 °C 21.4 °C 1010 hPa Calm     95 % 0 mm
19:58 22.3 °C 21.4 °C 1010 hPa Calm     95 % 0 mm
20:03 22.2 °C 21.3 °C 1010 hPa Calm     95 % 0 mm
20:08 22.2 °C 21.3 °C 1010 hPa Calm     95 % 0 mm
20:13 22.2 °C 21.3 °C 1010 hPa Calm     95 % 0 mm
20:18 22.2 °C 21.3 °C 1010 hPa Calm     95 % 0 mm
20:23 22.2 °C 21.3 °C 1010.4 hPa Calm     95 % 0 mm
20:28 22.2 °C 21.3 °C 1010 hPa Calm     95 % 0 mm
20:33 22.2 °C 21.3 °C 1010 hPa Calm     95 % 0 mm
20:38 22.1 °C 21.3 °C 1010.4 hPa Calm     95 % 0 mm
20:43 22.1 °C 21.3 °C 1010.4 hPa Calm     95 % 0 mm
20:48 22.1 °C 21.3 °C 1010.7 hPa Calm     95 % 0 mm
20:53 22.1 °C 21.3 °C 1010.7 hPa Calm     95 % 0 mm
20:58 21.9 °C 21.1 °C 1010.7 hPa Calm     95 % 0 mm
21:03 21.9 °C 21.1 °C 1010.7 hPa Calm     95 % 0 mm
21:08 21.9 °C 21.1 °C 1011.1 hPa Calm     95 % 0 mm
21:13 21.8 °C 20.9 °C 1011.1 hPa Calm     95 % 0 mm
21:18 21.8 °C 20.9 °C 1011.1 hPa Calm     95 % 0 mm
21:23 21.8 °C 20.9 °C 1010.7 hPa Calm   2.6 km/h 95 % 0 mm
21:28 21.6 °C 20.7 °C 1011.1 hPa Calm   2.6 km/h 95 % 0 mm
21:33 21.6 °C 20.7 °C 1011.1 hPa Calm     95 % 0 mm
21:38 21.5 °C 20.7 °C 1011.1 hPa Calm     95 % 0 mm
21:43 21.5 °C 20.7 °C 1010.7 hPa Calm   3.2 km/h 95 % 0 mm
21:48 21.4 °C 20.6 °C 1011.1 hPa Calm   3.2 km/h 95 % 0 mm
21:53 21.4 °C 20.6 °C 1011.1 hPa Calm     95 % 0 mm
21:58 21.3 °C 20.4 °C 1011.1 hPa SE 2.9 km/h 2.9 km/h 95 % 0 mm
22:03 21.3 °C 20.4 °C 1011.4 hPa Calm   2.9 km/h 95 % 0 mm
22:08 21.3 °C 20.4 °C 1011.4 hPa Calm   2.9 km/h 95 % 0 mm
22:13 21.3 °C 20.4 °C 1011.4 hPa Calm     95 % 0 mm
22:18 21.2 °C 20.3 °C 1011.7 hPa Calm     95 % 0 mm
22:23 21.2 °C 20.3 °C 1011.4 hPa Calm     95 % 0 mm
22:28 21.2 °C 20.3 °C 1011.7 hPa Calm     95 % 0 mm
22:33 21.1 °C 20.3 °C 1011.7 hPa Calm     95 % 0 mm
22:38 21.1 °C 20.3 °C 1011.7 hPa Calm     95 % 0 mm
22:43 21.1 °C 20.3 °C 1011.7 hPa Calm     95 % 0 mm
22:48 21.1 °C 20.3 °C 1011.4 hPa Calm     95 % 0 mm
22:53 21.1 °C 20.3 °C 1011.4 hPa Calm     95 % 0 mm
22:58 21.1 °C 20.3 °C 1011.4 hPa Calm     95 % 0 mm
23:03 21.1 °C 20.3 °C 1011.7 hPa Calm     95 % 0 mm
23:08 21 °C 20.2 °C 1011.7 hPa Calm     95 % 0 mm
23:11 21 °C 20.2 °C 1011.7 hPa Calm     95 % 0 mm
23:16 20.9 °C 20.2 °C 1011.7 hPa Calm     95 % 0 mm
23:21 20.9 °C 20.1 °C 1011.7 hPa Calm     95 % 0 mm
23:26 20.9 °C 20.1 °C 1011.7 hPa Calm     95 % 0 mm
23:31 21 °C 20.2 °C 1012.1 hPa Calm     95 % 0 mm
23:36 20.9 °C 20.1 °C 1011.7 hPa Calm     95 % 0 mm
23:41 20.9 °C 20.1 °C 1012.1 hPa Calm     95 % 0 mm
23:46 20.9 °C 20.1 °C 1012.1 hPa Calm     95 % 0 mm
23:51 20.9 °C 20.1 °C 1012.1 hPa Calm     95 % 0 mm
23:56 20.9 °C 20.1 °C 1012.4 hPa Calm     95 % 0 mm
Burke, Virginia, USA
Compliments of Weather Underground - 3 mb